EDT,Max TemperatureF,Mean TemperatureF,Min TemperatureF,Max Dew PointF,MeanDew PointF,Min DewpointF,Max Humidity, Mean Humidity, Min Humidity, Max Sea Level PressureIn, Mean Sea Level PressureIn, Min Sea Level PressureIn, Max VisibilityMiles, Mean VisibilityMiles, Min VisibilityMiles, Max Wind SpeedMPH, Mean Wind SpeedMPH, Max Gust SpeedMPH,PrecipitationIn, CloudCover, Events, WindDirDegrees
2013-4-1,27,24,22,23,17,11,91,72,57,30.06,29.93,29.74,10,8,1,21,14,33,0.00,6,Snow,304
2013-4-2,31,28,24,22,16,12,79,63,50,30.23,30.12,30.03,10,10,7,15,10,24,0.00,3,Snow,306
2013-4-3,34,28,23,21,18,13,80,62,51,30.41,30.32,30.22,10,10,10,15,8,24,0.00,1,,273
2013-4-4,37,34,31,36,29,17,99,81,55,30.21,30.01,29.91,10,8,1,21,12,31,0.00,6,Snow,227
2013-4-5,36,32,27,26,21,16,88,65,43,30.23,30.17,30.03,10,10,10,12,7,18,0.00,1,,309
2013-4-6,39,30,24,33,28,22,96,86,67,30.20,29.95,29.52,10,8,1,22,6,31,0.00,7,Rain-Snow,119
2013-4-7,43,35,27,42,33,27,99,87,67,30.04,29.74,29.41,10,8,0,16,9,23,0.00,6,Fog-Rain,280
2013-4-8,36,32,27,35,31,26,99,95,81,30.03,29.92,29.81,10,8,3,15,7,21,0.00,4,Rain,84
2013-4-9,40,36,32,37,34,29,100,93,81,30.13,30.07,30.02,10,8,2,10,3,17,0.00,7,,3
2013-4-10,42,37,32,31,28,23,95,76,54,30.15,30.11,30.07,10,10,10,14,8,21,0.00,4,,29
2013-4-11,34,31,28,28,23,19,95,72,61,30.13,30.02,29.84,10,8,1,30,15,40,0.00,4,Snow,71
2013-4-12,31,30,28,30,28,26,97,93,87,29.82,29.68,29.63,7,2,1,26,19,44,0.00,8,Snow,69
2013-4-13,34,32,29,32,29,25,98,90,76,29.90,29.74,29.68,10,7,1,18,5,24,0.00,8,Snow,274
2013-4-14,38,32,27,30,27,24,87,76,58,30.07,29.99,29.91,10,10,4,17,7,26,0.00,4,Rain-Snow,310
2013-4-15,52,43,34,48,38,29,99,85,69,29.91,29.78,29.71,10,9,1,23,15,37,0.00,6,Rain,161
2013-4-16,45,38,32,35,32,29,90,77,61,30.33,30.06,29.86,10,10,10,17,8,23,0.00,1,,258
2013-4-17,41,33,25,33,30,25,99,82,66,30.41,30.31,30.10,10,10,7,15,5,23,0.00,3,,62
2013-4-18,40,38,35,39,37,32,100,97,81,30.09,29.68,29.34,10,5,0,20,12,22,0.00,8,Fog-Rain-Snow,74
2013-4-19,47,36,26,48,31,19,100,83,69,29.66,29.31,29.15,10,9,2,33,17,47,0.00,8,Rain-Snow,222
2013-4-20,33,28,22,24,17,12,82,66,48,30.44,30.14,29.67,10,10,5,16,11,30,0.00,4,Snow,307
2013-4-21,42,30,17,31,21,15,95,69,38,30.58,30.48,30.33,10,10,10,12,4,17,0.00,3,,118
2013-4-22,55,44,32,32,30,24,89,63,40,30.33,30.24,30.12,10,10,10,16,8,24,0.00,4,,163
2013-4-23,49,41,33,43,34,31,99,82,57,30.11,29.94,29.86,10,9,0,17,7,26,0.00,6,Fog-Rain-Snow,221
2013-4-24,43,38,32,32,28,24,93,73,50,29.97,29.93,29.90,10,10,10,15,7,17,0.00,2,,283
2013-4-25,45,38,30,36,32,27,91,76,53,30.24,30.02,29.84,10,10,7,18,9,29,0.00,4,Rain,222
2013-4-26,55,46,36,37,34,31,88,70,47,30.31,30.24,30.16,10,10,7,17,7,24,0.00,5,Rain,172
2013-4-27,61,48,35,47,41,34,97,75,49,30.20,30.16,30.08,10,10,7,18,7,30,0.00,2,,210
2013-4-28,67,53,39,44,39,36,89,63,33,30.08,29.93,29.82,10,10,10,12,5,,0.00,2,,115
2013-4-29,55,47,39,51,46,36,99,90,64,29.87,29.84,29.81,10,7,0,10,4,,0.00,5,Fog-Rain,140
2013-4-30,70,57,44,58,54,45,100,83,62,29.86,29.81,29.75,10,8,0,23,10,34,0.00,4,Fog-Rain,144